Tracking 24122 objects as of 9-Dec-2021
HD Live streaming from Space Station
objects crossing your sky now

OPS 4682 DEB

Track OPS 4682 DEB now!
10-day predictions


NORAD ID: 38401
Int'l Code: 1965-027DE
Perigee: 1,266.4 km
Apogee: 1,314.9 km
Inclination: 90.3 °
Period: 111.2 minutes
Semi major axis: 7661 km
RCS: 0.0121 m2 (small)
Launch date: April 3, 1965
Source: United States (US)
Launch site: AIR FORCE WESTERN TEST RANGE (AFWTR)

Note: This is SATELLITE DEBRIS
aabbcc
Your satellite tracking list
Your tracking list is empty




NASA's NSSDC Master Catalog

Two Line Element Set (TLE):
1 38401U 65027DE  21341.42966598  .00000292  00000-0  10191-2 0  9993
2 38401  90.2687 330.9276 0031615 202.2646 157.7102 12.94551589448488
Source of the keplerian elements: AFSPC